Jackson, KY

8:12 PM EDT on May 22, 2018 (GMT -0400)
Carroll

Weather History for KJKL - February, 2014

Change the Weather History Date:

Tuesday, February 4, 2014

  Actual Average Record
Temperature  
Mean Temperature 31 °F 36 °F  
Max Temperature 33 °F 45 °F 69 °F (1991)
Min Temperature 28 °F 28 °F -8 °F (1996)
Degree Days  
Heating Degree Days 34 29  
Month to date heating degree days 102 116  
Since 1 July heating degree days 2886 2682  
Cooling Degree Days 0 0  
Month to date cooling degree days 0 0  
Year to date cooling degree days 0 0  
Moisture  
Dew Point 29 °F    
Average Humidity 96    
Maximum Humidity 100    
Minimum Humidity 92    
Precipitation  
Precipitation 0.20 in 0.14 in 1.08 in (1997)
Month to date precipitation 1.59 0.54  
Year to date precipitation 4.74 4.15  
Snow  
Snow 0.00 in 0.30 in 5.70 in (1998)
Month to date snowfall 0.4 1.2  
Since 1 July snowfall 18.7 13.8  
Snow Depth T in    
Sea Level Pressure  
Sea Level Pressure 30.09 in    
Wind  
Wind Speed 3 mph (NE)    
Max Wind Speed 9 mph    
Max Gust Speed 15 mph    
Visibility 2 miles    
Events Fog , Rain    
T = Trace of Precipitation, MM = Missing Value Source: NWS Daily Summary

Daily Weather History Graph

Daily Weather History Graph

Search for Another Location

Airport or City:

Astronomy

Feb. 04, 2014 Rise Set
Actual Time 7:34 AM EST 6:00 PM EST
Civil Twilight 7:06 AM EST 6:28 PM EST
Nautical Twilight 6:35 AM EST 6:59 PM EST
Astronomical Twilight 6:05 AM EST 7:29 PM EST
Moon 10:18 AM EST (2/4) 11:45 PM EST (2/4)
Length of Visible Light 11h 21m
Length of Day
10h 26m
Waxing Crescent, 29% of the Moon is Illuminated
Feb 4
Waxing Crescent
Feb 6
First Quarter
Feb 14
Full
Feb 22
Last Quarter
Mar 1
New

Hourly Weather History & Observations

Time (EST) Temp. Windchill Dew Point Humidity Pressure Visibility Wind Dir Wind Speed Gust Speed Precip Events Conditions
12:18 AM 28.9 °F 25.2 °F 27.0 °F 92% 30.25 in 1.5 mi Variable 3.5 mph - N/A   Overcast
12:53 AM 28.9 °F 25.2 °F 27.0 °F 92% 30.29 in 1.8 mi Variable 3.5 mph - N/A   Overcast
1:07 AM 28.9 °F 25.2 °F 26.1 °F 89% 30.26 in 2.0 mi Variable 3.5 mph - N/A   Overcast
1:19 AM 28.9 °F 23.9 °F 26.1 °F 89% 30.26 in 1.8 mi Variable 4.6 mph - N/A   Overcast
1:53 AM 28.0 °F - 26.1 °F 92% 30.30 in 2.0 mi Calm Calm - N/A   Overcast
2:02 AM 28.9 °F - 27.0 °F 92% 30.26 in 1.5 mi Calm Calm - N/A   Overcast
2:22 AM 28.0 °F 20.8 °F 26.1 °F 92% 30.24 in 2.0 mi ENE 6.9 mph - N/A   Overcast
2:53 AM 28.9 °F 25.2 °F 27.0 °F 92% 30.29 in 3.0 mi Variable 3.5 mph - N/A   Overcast
3:41 AM 28.0 °F 21.7 °F 26.1 °F 92% 30.24 in 2.5 mi Variable 5.8 mph - N/A   Overcast
3:53 AM 28.0 °F 24.2 °F 27.0 °F 96% 30.27 in 2.5 mi Variable 3.5 mph - N/A   Overcast
4:14 AM 28.0 °F - 27.0 °F 96% 30.24 in 1.8 mi Calm Calm - N/A   Overcast
4:24 AM 28.0 °F - 27.0 °F 96% 30.24 in 2.0 mi Calm Calm - N/A   Overcast
4:53 AM 28.0 °F 24.2 °F 26.1 °F 92% 30.28 in 1.5 mi Variable 3.5 mph - N/A   Overcast
5:00 AM 28.0 °F 24.2 °F 27.0 °F 96% 30.24 in 2.0 mi Variable 3.5 mph - N/A   Overcast
5:26 AM 28.0 °F - 26.1 °F 92% 30.24 in 1.8 mi Calm Calm - N/A   Overcast
5:36 AM 28.0 °F - 27.0 °F 96% 30.24 in 2.0 mi Calm Calm - N/A   Overcast
5:44 AM 28.0 °F - 27.0 °F 96% 30.24 in 1.8 mi Calm Calm - N/A   Overcast
5:53 AM 28.9 °F - 27.0 °F 92% 30.28 in 1.8 mi Calm Calm - N/A   Overcast
6:17 AM 28.0 °F 21.7 °F 27.0 °F 96% 30.25 in 2.0 mi ENE 5.8 mph - N/A   Overcast
6:53 AM 28.0 °F - 27.0 °F 96% 30.29 in 2.5 mi Calm Calm - N/A   Overcast
7:36 AM 28.9 °F 25.2 °F 27.0 °F 92% 30.24 in 1.8 mi Variable 3.5 mph - N/A   Overcast
7:50 AM 28.4 °F 24.6 °F 26.6 °F 93% 30.25 in 1.5 mi Variable 3.5 mph - N/A   Overcast
7:53 AM 28.9 °F - 27.0 °F 92% 30.29 in 1.5 mi Calm Calm - N/A   Overcast
8:12 AM 28.9 °F - 28.0 °F 96% 30.26 in 0.8 mi Calm Calm - N/A   Overcast
8:20 AM 28.9 °F - 28.0 °F 96% 30.27 in 1.0 mi Calm Calm - N/A   Mist
8:35 AM 28.9 °F 25.2 °F 27.0 °F 92% 30.28 in 0.8 mi Variable 3.5 mph - N/A   Mist
8:53 AM 28.9 °F - 27.0 °F 92% 30.30 in 0.5 mi Calm Calm - N/A Fog Light Freezing Fog
9:53 AM 30.0 °F 25.2 °F 28.0 °F 92% 30.29 in 0.2 mi Variable 4.6 mph - N/A Fog Light Freezing Fog
10:53 AM 30.0 °F 25.2 °F 28.0 °F 92% 30.27 in 0.5 mi Variable 4.6 mph - N/A Fog Light Freezing Fog
11:53 AM 30.9 °F - 28.9 °F 92% 30.24 in 0.5 mi Calm Calm - N/A Fog Light Freezing Fog
12:53 PM 30.9 °F - 30.0 °F 96% 30.17 in 0.5 mi Calm Calm - N/A Fog Light Freezing Fog
1:53 PM 32.0 °F - 30.9 °F 96% 30.14 in 0.2 mi Calm Calm - N/A Fog Fog
2:53 PM 33.1 °F 30.0 °F 32.0 °F 96% 30.13 in 0.2 mi Variable 3.5 mph - N/A Fog Fog
3:53 PM 32.0 °F 27.5 °F 30.0 °F 92% 30.09 in 0.2 mi Variable 4.6 mph - N/A Fog Fog
4:53 PM 32.0 °F 28.7 °F 30.0 °F 92% 30.07 in 0.2 mi Variable 3.5 mph - N/A Fog Fog
5:53 PM 32.0 °F 26.4 °F 30.0 °F 92% 30.05 in 0.2 mi Variable 5.8 mph - 0.00 in Fog Fog
6:21 PM 32.0 °F 25.6 °F 30.0 °F 92% 30.00 in 0.2 mi NE 6.9 mph - 0.02 in Fog , Rain Light Freezing Rain
6:31 PM 32.0 °F - 30.0 °F 92% 30.00 in 0.5 mi Calm Calm - 0.03 in Fog , Rain Light Freezing Rain
6:53 PM 32.0 °F 24.8 °F 30.0 °F 92% 29.98 in 0.8 mi NE 8.1 mph - 0.04 in Rain Light Freezing Rain
7:02 PM 32.0 °F 27.5 °F 30.0 °F 92% 29.94 in 1.0 mi Variable 4.6 mph - 0.01 in Rain Light Freezing Rain
7:10 PM 30.9 °F - 30.0 °F 96% 29.94 in 2.0 mi North - - 0.01 in Rain Light Freezing Rain
7:28 PM 30.9 °F 26.2 °F 30.0 °F 96% 29.93 in 1.8 mi Variable 4.6 mph - 0.03 in Rain Light Freezing Rain
7:30 PM 30.9 °F 26.2 °F 30.0 °F 96% 29.94 in 1.5 mi Variable 4.6 mph - 0.03 in Rain Light Freezing Rain
7:41 PM 30.9 °F 26.2 °F 30.0 °F 96% 29.92 in 2.0 mi Variable 4.6 mph - 0.04 in Rain Light Freezing Rain
7:50 PM 30.2 °F 25.4 °F 30.2 °F 100% 29.92 in 1.8 mi Variable 4.6 mph - 0.05 in Rain Light Freezing Rain
7:53 PM 30.9 °F 27.5 °F 30.0 °F 96% 29.95 in 1.5 mi Variable 3.5 mph - 0.05 in Rain Light Freezing Rain
7:57 PM 30.9 °F 27.5 °F 30.0 °F 96% 29.89 in 2.0 mi Variable 3.5 mph - 0.00 in Rain Light Freezing Rain
8:09 PM 30.9 °F 26.2 °F 30.0 °F 96% 29.90 in 3.0 mi Variable 4.6 mph - 0.00 in Rain Light Freezing Rain
8:42 PM 32.0 °F 28.7 °F 30.9 °F 96% 29.90 in 2.5 mi Variable 3.5 mph - 0.03 in Rain Light Freezing Rain
8:50 PM 32.0 °F 27.5 °F 30.2 °F 93% 29.89 in 3.0 mi Variable 4.6 mph - 0.03 in Rain Light Freezing Rain
8:51 PM 32.0 °F 27.5 °F 30.9 °F 96% 29.93 in 4.0 mi Variable 4.6 mph - 0.03 in Rain Light Freezing Rain
9:02 PM 32.0 °F 28.7 °F 30.0 °F 92% 29.89 in 3.0 mi Variable 3.5 mph - 0.00 in   Overcast
9:53 PM 32.0 °F - 30.0 °F 92% 29.92 in 5.0 mi Calm Calm - 0.00 in   Overcast
10:03 PM 32.0 °F 28.7 °F 30.0 °F 92% 29.88 in 2.5 mi Variable 3.5 mph - N/A   Overcast
10:12 PM 32.0 °F 28.7 °F 30.0 °F 92% 29.89 in 4.0 mi Variable 3.5 mph - 0.00 in   Overcast
10:31 PM 32.0 °F - 30.9 °F 96% 29.88 in 2.5 mi Calm Calm - 0.00 in   Overcast
10:41 PM 32.0 °F - 30.9 °F 96% 29.88 in 1.5 mi Calm Calm - 0.00 in   Overcast
10:53 PM 32.0 °F 25.6 °F 30.0 °F 92% 29.94 in 2.0 mi Variable 6.9 mph - 0.01 in   Overcast
10:56 PM 32.0 °F 26.4 °F 30.0 °F 92% 29.91 in 1.5 mi Variable 5.8 mph - 0.00 in   Overcast
11:06 PM 32.0 °F - 30.0 °F 92% 29.89 in 0.5 mi Calm Calm - 0.02 in Fog Fog
11:27 PM 32.0 °F 27.5 °F 30.0 °F 92% 29.87 in 1.8 mi NE 4.6 mph - 0.03 in   Overcast
11:31 PM 32.0 °F 28.7 °F 30.0 °F 92% 29.87 in 3.0 mi NNE 3.5 mph - 0.03 in   Overcast
11:36 PM 32.0 °F - 30.9 °F 96% 29.87 in 1.8 mi Calm Calm - 0.03 in   Overcast
11:43 PM 32.0 °F 28.7 °F 30.0 °F 92% 29.86 in 1.5 mi NE 3.5 mph - 0.04 in   Overcast
11:53 PM 32.0 °F - 30.9 °F 96% 29.89 in 1.2 mi Calm Calm - 0.06 in   Overcast